Location: Marcé
(47.5801°N, 0.3280°W)
Time: 20:10:37
(UTC+01:00)

Vanguard 3 - Pass Details

Date: 10 December 2021
Orbit: 508 x 3260 km, 33.3° (Epoch: 17 January)

Event Time Altitude Azimuth Distance (km) Brightness Sun altitude
Rises 08:48:58 0° 276° (W) 7,225 11.4 0.6°
Reaches altitude 10° 08:55:08 10° 267° (W) 6,088 11.2 1.4°
Maximum altitude 09:08:41 26° 220° (SW) 4,181 10.8 3.2°
Drops below altitude 10° 09:18:55 10° 170° (S) 4,503 11.9 4.5°
Sets 09:22:40 0° 158° (SSE) 5,099 12.6 5.0°
